Time,TemperatureF,DewpointF,PressureIn,WindDirection,WindDirectionDegrees,WindSpeedMPH,WindSpeedGustMPH,Humidity,HourlyPrecipIn,Conditions,Clouds,dailyrainin,SoftwareType,DateUTC
2013-01-16 00:01:00,19.8,3.2,30.67,NW,313,4.0,5.0,48,0.00,,,0.00,Wunderground v.1.15,2013-01-16 07:01:00,
2013-01-16 00:08:00,19.8,2.8,30.67,NW,323,3.0,5.0,47,0.00,,,0.00,Wunderground v.1.15,2013-01-16 07:08:00,
2013-01-16 00:14:00,19.9,3.0,30.67,NW,307,4.0,9.0,47,0.00,,,0.00,weatherlink.com 1.10,2013-01-16 07:14:00,
2013-01-16 00:19:00,19.8,2.8,30.67,NW,306,1.0,6.0,47,0.00,,,0.00,Wunderground v.1.15,2013-01-16 07:19:00,
2013-01-16 00:26:00,19.3,3.2,30.67,NW,306,1.0,3.0,49,0.00,,,0.00,Wunderground v.1.15,2013-01-16 07:26:00,
2013-01-16 00:31:00,18.7,2.7,30.67,NNE,28,4.0,4.0,49,0.00,,,0.00,Wunderground v.1.15,2013-01-16 07:31:00,
2013-01-16 00:36:00,18.3,2.7,30.66,NNE,29,0.0,4.0,50,0.00,,,0.00,Wunderground v.1.15,2013-01-16 07:36:00,
2013-01-16 00:42:00,17.7,2.6,30.66,NNE,30,0.0,1.0,51,0.00,,,0.00,Wunderground v.1.15,2013-01-16 07:42:00,
2013-01-16 00:48:00,17.1,2.9,30.66,NNE,28,0.0,1.0,53,0.00,,,0.00,Wunderground v.1.15,2013-01-16 07:48:00,
2013-01-16 00:53:00,16.7,2.9,30.66,NNE,29,0.0,1.0,54,0.00,,,0.00,Wunderground v.1.15,2013-01-16 07:53:00,
2013-01-16 00:58:00,16.2,2.8,30.66,NNE,30,0.0,1.0,55,0.00,,,0.00,Wunderground v.1.15,2013-01-16 07:58:00,
2013-01-16 01:03:00,15.8,2.9,30.66,NNE,28,0.0,0.0,56,0.00,,,0.00,Wunderground v.1.15,2013-01-16 08:03:00,
2013-01-16 01:09:00,15.3,3.1,30.66,NNE,29,0.0,0.0,58,0.00,,,0.00,Wunderground v.1.15,2013-01-16 08:09:00,
2013-01-16 01:15:00,15.1,3.0,30.66,NNE,30,1.0,1.0,58,0.00,,,0.00,weatherlink.com 1.10,2013-01-16 08:15:00,
2013-01-16 01:21:00,14.8,3.0,30.66,NNE,30,1.0,1.0,59,0.00,,,0.00,Wunderground v.1.15,2013-01-16 08:21:00,
2013-01-16 01:26:00,14.6,2.9,30.66,NNE,27,0.0,1.0,59,0.00,,,0.00,Wunderground v.1.15,2013-01-16 08:26:00,
2013-01-16 01:31:00,14.2,2.8,30.66,NNE,29,0.0,0.0,60,0.00,,,0.00,Wunderground v.1.15,2013-01-16 08:31:00,
2013-01-16 01:37:00,13.9,2.9,30.66,NNE,29,0.0,0.0,61,0.00,,,0.00,Wunderground v.1.15,2013-01-16 08:37:00,
2013-01-16 01:43:00,13.8,3.2,30.67,NNE,28,1.0,1.0,62,0.00,,,0.00,Wunderground v.1.15,2013-01-16 08:43:00,
2013-01-16 01:48:00,13.9,2.9,30.67,NNE,28,0.0,1.0,61,0.00,,,0.00,Wunderground v.1.15,2013-01-16 08:48:00,
2013-01-16 01:53:00,14.1,3.1,30.66,NNE,30,0.0,2.0,61,0.00,,,0.00,Wunderground v.1.15,2013-01-16 08:53:00,
2013-01-16 01:58:00,14.4,3.4,30.66,NNE,30,1.0,2.0,61,0.00,,,0.00,Wunderground v.1.15,2013-01-16 08:58:00,
2013-01-16 02:03:00,14.5,3.5,30.67,NNE,30,1.0,2.0,61,0.00,,,0.00,Wunderground v.1.15,2013-01-16 09:03:00,
2013-01-16 02:08:00,14.7,4.0,30.66,NNE,28,2.0,2.0,62,0.00,,,0.00,Wunderground v.1.15,2013-01-16 09:08:00,
2013-01-16 02:13:00,14.8,4.1,30.66,NNE,29,1.0,2.0,62,0.00,,,0.00,Wunderground v.1.15,2013-01-16 09:13:00,
2013-01-16 02:18:00,14.6,4.3,30.66,NNE,30,1.0,2.0,63,0.00,,,0.00,Wunderground v.1.15,2013-01-16 09:18:00,
2013-01-16 02:23:00,14.6,3.9,30.66,NNE,28,0.0,1.0,62,0.00,,,0.00,Wunderground v.1.15,2013-01-16 09:23:00,
2013-01-16 02:28:00,14.3,3.6,30.67,WNW,290,4.0,4.0,62,0.00,,,0.00,Wunderground v.1.15,2013-01-16 09:28:00,
2013-01-16 02:33:00,14.0,3.7,30.67,WNW,290,2.0,2.0,63,0.00,,,0.00,Wunderground v.1.15,2013-01-16 09:33:00,
2013-01-16 02:38:00,13.8,3.5,30.68,WNW,293,1.0,4.0,63,0.00,,,0.00,Wunderground v.1.15,2013-01-16 09:38:00,
2013-01-16 02:43:00,13.7,3.4,30.67,WNW,292,0.0,2.0,63,0.00,,,0.00,Wunderground v.1.15,2013-01-16 09:43:00,
2013-01-16 02:48:00,13.5,3.2,30.67,WNW,292,0.0,2.0,63,0.00,,,0.00,Wunderground v.1.15,2013-01-16 09:48:00,
2013-01-16 02:53:00,13.2,3.3,30.67,WNW,292,3.0,3.0,64,0.00,,,0.00,Wunderground v.1.15,2013-01-16 09:53:00,
2013-01-16 02:58:00,12.9,3.0,30.67,NW,304,2.0,4.0,64,0.00,,,0.00,Wunderground v.1.15,2013-01-16 09:58:00,
2013-01-16 03:03:00,12.6,3.1,30.68,NNE,27,2.0,3.0,65,0.00,,,0.00,Wunderground v.1.15,2013-01-16 10:03:00,
2013-01-16 03:08:00,12.3,3.1,30.68,NNE,28,3.0,4.0,66,0.00,,,0.00,Wunderground v.1.15,2013-01-16 10:08:00,
2013-01-16 03:13:00,12.1,3.2,30.67,NNE,30,3.0,4.0,67,0.00,,,0.00,Wunderground v.1.15,2013-01-16 10:13:00,
2013-01-16 03:18:00,12.1,3.6,30.68,NE,34,4.0,5.0,68,0.00,,,0.00,Wunderground v.1.15,2013-01-16 10:18:00,
2013-01-16 03:23:00,12.1,3.6,30.67,NE,48,3.0,5.0,68,0.00,,,0.00,Wunderground v.1.15,2013-01-16 10:23:00,
2013-01-16 03:28:00,12.1,3.9,30.67,NE,37,0.0,5.0,69,0.00,,,0.00,Wunderground v.1.15,2013-01-16 10:28:00,
2013-01-16 03:33:00,12.1,3.9,30.67,NE,36,1.0,3.0,69,0.00,,,0.00,Wunderground v.1.15,2013-01-16 10:33:00,
2013-01-16 03:38:00,12.0,3.8,30.67,NE,36,0.0,3.0,69,0.00,,,0.00,Wunderground v.1.15,2013-01-16 10:38:00,
2013-01-16 03:43:00,12.1,3.9,30.67,NW,311,0.0,4.0,69,0.00,,,0.00,Wunderground v.1.15,2013-01-16 10:43:00,
2013-01-16 03:48:00,12.2,4.0,30.67,NW,309,0.0,4.0,69,0.00,,,0.00,Wunderground v.1.15,2013-01-16 10:48:00,
2013-01-16 03:53:00,12.2,3.6,30.67,NW,309,1.0,3.0,68,0.00,,,0.00,Wunderground v.1.15,2013-01-16 10:53:00,
2013-01-16 03:58:00,12.1,3.6,30.67,NW,309,3.0,4.0,68,0.00,,,0.00,Wunderground v.1.15,2013-01-16 10:58:00,
2013-01-16 04:04:00,12.0,3.5,30.67,NW,309,2.0,3.0,68,0.00,,,0.00,Wunderground v.1.15,2013-01-16 11:04:00,
2013-01-16 04:09:00,11.9,3.4,30.67,NW,309,2.0,3.0,68,0.00,,,0.00,Wunderground v.1.15,2013-01-16 11:09:00,
2013-01-16 04:14:00,11.7,3.2,30.67,NW,309,2.0,3.0,68,0.00,,,0.00,Wunderground v.1.15,2013-01-16 11:14:00,
2013-01-16 04:19:00,11.5,3.3,30.67,NW,309,0.0,3.0,69,0.00,,,0.00,Wunderground v.1.15,2013-01-16 11:19:00,
2013-01-16 04:24:00,11.2,3.0,30.67,NW,310,3.0,3.0,69,0.00,,,0.00,Wunderground v.1.15,2013-01-16 11:24:00,
2013-01-16 04:29:00,11.0,2.8,30.67,NW,310,2.0,4.0,69,0.00,,,0.00,Wunderground v.1.15,2013-01-16 11:29:00,
2013-01-16 04:34:00,10.8,2.9,30.67,NW,310,1.0,4.0,70,0.00,,,0.00,Wunderground v.1.15,2013-01-16 11:34:00,
2013-01-16 04:39:00,10.6,2.7,30.67,NW,309,2.0,4.0,70,0.00,,,0.00,Wunderground v.1.15,2013-01-16 11:39:00,
2013-01-16 04:44:00,10.5,2.6,30.67,NW,310,0.0,2.0,70,0.00,,,0.00,Wunderground v.1.15,2013-01-16 11:44:00,
2013-01-16 04:49:00,10.4,2.9,30.66,NW,309,0.0,2.0,71,0.00,,,0.00,Wunderground v.1.15,2013-01-16 11:49:00,
2013-01-16 04:54:00,10.3,2.8,30.66,NW,309,2.0,4.0,71,0.00,,,0.00,Wunderground v.1.15,2013-01-16 11:54:00,
2013-01-16 04:59:00,10.1,2.3,30.66,NW,309,1.0,4.0,70,0.00,,,0.00,Wunderground v.1.15,2013-01-16 11:59:00,
2013-01-16 05:04:00,10.0,2.5,30.66,North,5,2.0,3.0,71,0.00,,,0.00,Wunderground v.1.15,2013-01-16 12:04:00,
2013-01-16 05:09:00,9.9,2.4,30.67,North,9,1.0,3.0,71,0.00,,,0.00,Wunderground v.1.15,2013-01-16 12:09:00,
2013-01-16 05:14:00,9.8,2.3,30.67,North,9,1.0,2.0,71,0.00,,,0.00,Wunderground v.1.15,2013-01-16 12:14:00,
2013-01-16 05:19:00,9.7,2.2,30.67,North,9,1.0,2.0,71,0.00,,,0.00,Wunderground v.1.15,2013-01-16 12:19:00,
2013-01-16 05:24:00,9.6,2.4,30.67,North,10,0.0,2.0,72,0.00,,,0.00,Wunderground v.1.15,2013-01-16 12:24:00,
2013-01-16 05:29:00,9.5,2.3,30.66,North,5,3.0,3.0,72,0.00,,,0.00,Wunderground v.1.15,2013-01-16 12:29:00,
2013-01-16 05:34:00,9.6,2.4,30.67,NNE,20,3.0,6.0,72,0.00,,,0.00,Wunderground v.1.15,2013-01-16 12:34:00,
2013-01-16 05:39:00,9.5,2.3,30.67,NNE,23,3.0,6.0,72,0.00,,,0.00,Wunderground v.1.15,2013-01-16 12:39:00,
2013-01-16 05:44:00,9.4,2.2,30.67,NNW,348,5.0,7.0,72,0.00,,,0.00,Wunderground v.1.15,2013-01-16 12:44:00,
2013-01-16 05:49:00,9.5,2.3,30.68,NNE,22,3.0,7.0,72,0.00,,,0.00,Wunderground v.1.15,2013-01-16 12:49:00,
2013-01-16 05:54:00,9.3,2.1,30.68,NE,45,5.0,7.0,72,0.00,,,0.00,Wunderground v.1.15,2013-01-16 12:54:00,
2013-01-16 05:59:00,9.1,1.9,30.68,North,360,7.0,7.0,72,0.00,,,0.00,Wunderground v.1.15,2013-01-16 12:59:00,
2013-01-16 06:04:00,8.9,2.0,30.68,North,360,6.0,7.0,73,0.00,,,0.00,Wunderground v.1.15,2013-01-16 13:04:00,
2013-01-16 06:09:00,8.8,1.9,30.68,North,350,4.0,7.0,73,0.00,,,0.00,Wunderground v.1.15,2013-01-16 13:09:00,
2013-01-16 06:14:00,8.7,2.1,30.67,North,351,3.0,6.0,74,0.00,,,0.00,Wunderground v.1.15,2013-01-16 13:14:00,
2013-01-16 06:19:00,8.6,2.0,30.68,North,355,3.0,6.0,74,0.00,,,0.00,Wunderground v.1.15,2013-01-16 13:19:00,
2013-01-16 06:24:00,8.4,1.8,30.67,NNW,341,4.0,6.0,74,0.00,,,0.00,Wunderground v.1.15,2013-01-16 13:24:00,
2013-01-16 06:29:00,8.3,1.7,30.68,North,355,4.0,6.0,74,0.00,,,0.00,Wunderground v.1.15,2013-01-16 13:29:00,
2013-01-16 06:34:00,8.2,1.9,30.68,North,350,2.0,4.0,75,0.00,,,0.00,Wunderground v.1.15,2013-01-16 13:34:00,
2013-01-16 06:39:00,8.0,1.7,30.68,North,355,1.0,4.0,75,0.00,,,0.00,Wunderground v.1.15,2013-01-16 13:39:00,
2013-01-16 06:44:00,7.9,1.6,30.69,North,350,3.0,6.0,75,0.00,,,0.00,Wunderground v.1.15,2013-01-16 13:44:00,
2013-01-16 06:49:00,7.8,1.5,30.69,North,350,0.0,6.0,75,0.00,,,0.00,Wunderground v.1.15,2013-01-16 13:49:00,
2013-01-16 06:54:00,7.7,1.7,30.69,North,349,0.0,3.0,76,0.00,,,0.00,Wunderground v.1.15,2013-01-16 13:54:00,
2013-01-16 06:59:00,7.5,1.5,30.70,North,350,0.0,3.0,76,0.00,,,0.00,Wunderground v.1.15,2013-01-16 13:59:00,
2013-01-16 07:04:00,7.4,1.4,30.70,North,349,3.0,4.0,76,0.00,,,0.00,Wunderground v.1.15,2013-01-16 14:04:00,
2013-01-16 07:10:00,7.4,1.4,30.70,North,350,2.0,4.0,76,0.00,,,0.00,Wunderground v.1.15,2013-01-16 14:10:00,
2013-01-16 07:15:00,7.3,1.3,30.70,North,350,3.0,3.0,76,0.00,,,0.00,Wunderground v.1.15,2013-01-16 14:15:00,
2013-01-16 07:20:00,7.4,1.7,30.71,North,360,3.0,3.0,77,0.00,,,0.00,Wunderground v.1.15,2013-01-16 14:20:00,
2013-01-16 07:25:00,7.4,1.7,30.71,North,360,1.0,3.0,77,0.00,,,0.00,Wunderground v.1.15,2013-01-16 14:25:00,
2013-01-16 07:30:00,7.5,1.8,30.71,North,350,5.0,5.0,77,0.00,,,0.00,Wunderground v.1.15,2013-01-16 14:30:00,
2013-01-16 07:35:00,7.6,1.9,30.71,North,355,0.0,5.0,77,0.00,,,0.00,Wunderground v.1.15,2013-01-16 14:35:00,
2013-01-16 07:41:00,7.9,2.2,30.71,North,355,2.0,3.0,77,0.00,,,0.00,Wunderground v.1.15,2013-01-16 14:41:00,
2013-01-16 07:46:00,8.0,2.3,30.71,North,355,0.0,3.0,77,0.00,,,0.00,Wunderground v.1.15,2013-01-16 14:46:00,
2013-01-16 07:51:00,8.4,2.7,30.70,North,355,0.0,1.0,77,0.00,,,0.00,Wunderground v.1.15,2013-01-16 14:51:00,
2013-01-16 07:56:00,8.8,3.1,30.70,North,349,0.0,3.0,77,0.00,,,0.00,Wunderground v.1.15,2013-01-16 14:56:00,
2013-01-16 08:01:00,9.2,3.2,30.71,North,351,1.0,1.0,76,0.00,,,0.00,Wunderground v.1.15,2013-01-16 15:01:00,
2013-01-16 08:06:00,9.8,3.5,30.72,North,360,2.0,4.0,75,0.00,,,0.00,Wunderground v.1.15,2013-01-16 15:06:00,
2013-01-16 08:11:00,10.5,3.6,30.72,North,355,3.0,4.0,73,0.00,,,0.00,Wunderground v.1.15,2013-01-16 15:11:00,
2013-01-16 08:16:00,11.1,3.8,30.72,North,351,0.0,4.0,72,0.00,,,0.00,Wunderground v.1.15,2013-01-16 15:16:00,
2013-01-16 08:21:00,11.8,3.9,30.72,North,350,1.0,2.0,70,0.00,,,0.00,Wunderground v.1.15,2013-01-16 15:21:00,
2013-01-16 08:26:00,12.3,4.1,30.73,North,355,0.0,2.0,69,0.00,,,0.00,Wunderground v.1.15,2013-01-16 15:26:00,
2013-01-16 08:31:00,12.9,4.3,30.73,North,351,4.0,4.0,68,0.00,,,0.00,Wunderground v.1.15,2013-01-16 15:31:00,
2013-01-16 08:36:00,13.4,4.5,30.73,North,351,2.0,4.0,67,0.00,,,0.00,Wunderground v.1.15,2013-01-16 15:36:00,
2013-01-16 08:41:00,13.8,4.5,30.73,North,351,3.0,5.0,66,0.00,,,0.00,Wunderground v.1.15,2013-01-16 15:41:00,
2013-01-16 08:46:00,14.4,4.8,30.73,North,360,2.0,5.0,65,0.00,,,0.00,Wunderground v.1.15,2013-01-16 15:46:00,
2013-01-16 08:51:00,15.0,5.0,30.73,North,360,0.0,3.0,64,0.00,,,0.00,Wunderground v.1.15,2013-01-16 15:51:00,
2013-01-16 08:56:00,15.6,5.2,30.73,North,360,1.0,3.0,63,0.00,,,0.00,Wunderground v.1.15,2013-01-16 15:56:00,
2013-01-16 09:01:00,15.9,5.2,30.73,North,360,1.0,1.0,62,0.00,,,0.00,Wunderground v.1.15,2013-01-16 16:01:00,
2013-01-16 09:06:00,16.1,5.4,30.73,NNE,16,1.0,2.0,62,0.00,,,0.00,Wunderground v.1.15,2013-01-16 16:06:00,
2013-01-16 09:12:00,16.3,5.5,30.74,NNE,17,0.0,1.0,62,0.00,,,0.00,Wunderground v.1.15,2013-01-16 16:12:00,
2013-01-16 09:17:00,16.6,6.2,30.74,NNE,15,0.0,1.0,63,0.00,,,0.00,Wunderground v.1.15,2013-01-16 16:17:00,
2013-01-16 09:22:00,17.3,6.5,30.73,NNE,16,1.0,1.0,62,0.00,,,0.00,Wunderground v.1.15,2013-01-16 16:22:00,
2013-01-16 09:27:00,18.0,6.8,30.74,NNE,16,0.0,2.0,61,0.00,,,0.00,Wunderground v.1.15,2013-01-16 16:27:00,
2013-01-16 09:32:00,18.5,6.5,30.74,NNE,16,1.0,2.0,59,0.00,,,0.00,Wunderground v.1.15,2013-01-16 16:32:00,
2013-01-16 09:37:00,18.9,6.5,30.73,NNE,16,0.0,2.0,58,0.00,,,0.00,Wunderground v.1.15,2013-01-16 16:37:00,
2013-01-16 09:42:00,19.3,6.5,30.73,NW,312,1.0,2.0,57,0.00,,,0.00,Wunderground v.1.15,2013-01-16 16:42:00,
2013-01-16 09:47:00,19.7,6.5,30.73,WNW,290,0.0,3.0,56,0.00,,,0.00,Wunderground v.1.15,2013-01-16 16:47:00,
2013-01-16 09:52:00,20.1,6.5,30.73,WNW,289,2.0,4.0,55,0.00,,,0.00,Wunderground v.1.15,2013-01-16 16:52:00,
2013-01-16 09:58:00,20.7,6.7,30.73,SSW,198,2.0,4.0,54,0.00,,,0.00,Wunderground v.1.15,2013-01-16 16:58:00,
2013-01-16 10:03:00,21.8,7.3,30.73,SSW,199,1.0,3.0,53,0.00,,,0.00,Wunderground v.1.15,2013-01-16 17:03:00,
2013-01-16 10:08:00,22.7,7.3,30.73,SSW,199,1.0,3.0,51,0.00,,,0.00,Wunderground v.1.15,2013-01-16 17:08:00,
2013-01-16 10:13:00,23.2,7.3,30.73,WSW,240,0.0,3.0,50,0.00,,,0.00,Wunderground v.1.15,2013-01-16 17:13:00,
2013-01-16 10:18:00,23.9,7.0,30.72,WSW,240,1.0,3.0,48,0.00,,,0.00,Wunderground v.1.15,2013-01-16 17:18:00,
2013-01-16 10:23:00,24.7,6.8,30.72,WSW,240,0.0,1.0,46,0.00,,,0.00,Wunderground v.1.15,2013-01-16 17:23:00,
2013-01-16 10:28:00,25.5,7.1,30.72,WSW,240,1.0,2.0,45,0.00,,,0.00,Wunderground v.1.15,2013-01-16 17:28:00,
2013-01-16 10:33:00,25.8,6.9,30.71,WSW,240,1.0,1.0,44,0.00,,,0.00,Wunderground v.1.15,2013-01-16 17:33:00,
2013-01-16 10:38:00,26.3,7.3,30.71,SSW,201,2.0,4.0,44,0.00,,,0.00,Wunderground v.1.15,2013-01-16 17:38:00,
2013-01-16 10:43:00,26.9,7.9,30.70,SSW,202,0.0,3.0,44,0.00,,,0.00,Wunderground v.1.15,2013-01-16 17:43:00,
2013-01-16 10:48:00,27.7,7.6,30.70,SSW,201,2.0,3.0,42,0.00,,,0.00,Wunderground v.1.15,2013-01-16 17:48:00,
2013-01-16 10:53:00,28.1,7.9,30.69,ENE,69,2.0,5.0,42,0.00,,,0.00,Wunderground v.1.15,2013-01-16 17:53:00,
2013-01-16 10:58:00,28.0,7.8,30.69,East,96,5.0,5.0,42,0.00,,,0.00,Wunderground v.1.15,2013-01-16 17:58:00,
2013-01-16 11:03:00,28.3,8.1,30.69,East,97,0.0,3.0,42,0.00,,,0.00,Wunderground v.1.15,2013-01-16 18:03:00,
2013-01-16 11:08:00,28.6,8.4,30.68,East,96,1.0,3.0,42,0.00,,,0.00,Wunderground v.1.15,2013-01-16 18:08:00,
2013-01-16 11:13:00,29.4,8.6,30.68,ESE,115,2.0,3.0,41,0.00,,,0.00,Wunderground v.1.15,2013-01-16 18:13:00,
2013-01-16 11:18:00,30.2,8.7,30.68,SE,138,1.0,3.0,40,0.00,,,0.00,Wunderground v.1.15,2013-01-16 18:18:00,
2013-01-16 11:23:00,30.6,8.5,30.67,East,88,1.0,5.0,39,0.00,,,0.00,Wunderground v.1.15,2013-01-16 18:23:00,
2013-01-16 11:28:00,31.0,8.9,30.67,East,86,1.0,5.0,39,0.00,,,0.00,Wunderground v.1.15,2013-01-16 18:28:00,
2013-01-16 11:33:00,31.6,9.4,30.66,ESE,103,0.0,5.0,39,0.00,,,0.00,Wunderground v.1.15,2013-01-16 18:33:00,
2013-01-16 11:38:00,31.9,8.5,30.66,ENE,71,2.0,5.0,37,0.00,,,0.00,Wunderground v.1.15,2013-01-16 18:38:00,
2013-01-16 11:43:00,32.1,9.3,30.66,South,169,1.0,2.0,38,0.00,,,0.00,Wunderground v.1.15,2013-01-16 18:43:00,
2013-01-16 11:49:00,32.3,9.5,30.65,NW,316,0.0,6.0,38,0.00,,,0.00,Wunderground v.1.15,2013-01-16 18:49:00,
2013-01-16 11:54:00,32.3,8.9,30.65,NW,315,0.0,4.0,37,0.00,,,0.00,Wunderground v.1.15,2013-01-16 18:54:00,
2013-01-16 11:59:00,32.6,9.8,30.65,NW,316,0.0,4.0,38,0.00,,,0.00,Wunderground v.1.15,2013-01-16 18:59:00,
2013-01-16 12:03:00,33.1,10.2,30.64,NW,306,3.0,5.0,38,0.00,,,0.00,Wunderground v.1.15,2013-01-16 19:03:00,
2013-01-16 12:09:00,33.2,9.1,30.64,NW,306,1.0,5.0,36,0.00,,,0.00,Wunderground v.1.15,2013-01-16 19:09:00,
2013-01-16 12:13:00,33.3,9.8,30.64,NW,306,1.0,3.0,37,0.00,,,0.00,Wunderground v.1.15,2013-01-16 19:13:00,
2013-01-16 12:19:00,33.7,10.1,30.63,NW,307,2.0,4.0,37,0.00,,,0.00,Wunderground v.1.15,2013-01-16 19:19:00,
2013-01-16 12:24:00,34.0,9.8,30.63,NW,306,0.0,2.0,36,0.00,,,0.00,Wunderground v.1.15,2013-01-16 19:24:00,
2013-01-16 12:29:00,34.5,10.2,30.62,NW,306,0.0,5.0,36,0.00,,,0.00,Wunderground v.1.15,2013-01-16 19:29:00,
2013-01-16 12:34:00,34.8,9.9,30.62,NW,306,0.0,4.0,35,0.00,,,0.00,Wunderground v.1.15,2013-01-16 19:34:00,
2013-01-16 12:39:00,35.1,10.2,30.62,NW,306,1.0,4.0,35,0.00,,,0.00,Wunderground v.1.15,2013-01-16 19:39:00,
2013-01-16 12:44:00,35.3,10.3,30.61,NW,308,3.0,3.0,35,0.00,,,0.00,Wunderground v.1.15,2013-01-16 19:44:00,
2013-01-16 12:49:00,35.9,10.9,30.61,NW,305,3.0,3.0,35,0.00,,,0.00,Wunderground v.1.15,2013-01-16 19:49:00,
2013-01-16 12:54:00,36.3,11.2,30.61,NW,309,1.0,3.0,35,0.00,,,0.00,Wunderground v.1.15,2013-01-16 19:54:00,
2013-01-16 12:59:00,36.7,10.9,30.60,WNW,297,2.0,6.0,34,0.00,,,0.00,Wunderground v.1.15,2013-01-16 19:59:00,
2013-01-16 13:04:00,36.7,10.9,30.60,WNW,296,2.0,5.0,34,0.00,,,0.00,Wunderground v.1.15,2013-01-16 20:04:00,
2013-01-16 13:09:00,36.8,11.0,30.60,WNW,297,2.0,5.0,34,0.00,,,0.00,Wunderground v.1.15,2013-01-16 20:09:00,
2013-01-16 13:14:00,37.1,11.3,30.59,WNW,296,4.0,4.0,34,0.00,,,0.00,Wunderground v.1.15,2013-01-16 20:14:00,
2013-01-16 13:19:00,37.2,11.4,30.59,WNW,297,0.0,5.0,34,0.00,,,0.00,Wunderground v.1.15,2013-01-16 20:19:00,
2013-01-16 13:24:00,37.5,11.6,30.59,WNW,297,2.0,3.0,34,0.00,,,0.00,Wunderground v.1.15,2013-01-16 20:24:00,
2013-01-16 13:29:00,37.9,11.3,30.59,North,350,2.0,3.0,33,0.00,,,0.00,Wunderground v.1.15,2013-01-16 20:29:00,
2013-01-16 13:34:00,37.8,11.2,30.59,NE,49,6.0,9.0,33,0.00,,,0.00,Wunderground v.1.15,2013-01-16 20:34:00,
2013-01-16 13:39:00,37.5,11.6,30.58,ESE,121,1.0,9.0,34,0.00,,,0.00,Wunderground v.1.15,2013-01-16 20:39:00,
2013-01-16 13:44:00,37.5,11.6,30.58,ESE,123,4.0,7.0,34,0.00,,,0.00,Wunderground v.1.15,2013-01-16 20:44:00,
2013-01-16 13:49:00,37.9,12.0,30.58,East,94,5.0,8.0,34,0.00,,,0.00,Wunderground v.1.15,2013-01-16 20:49:00,
2013-01-16 13:54:00,38.2,12.3,30.57,ESE,113,3.0,6.0,34,0.00,,,0.00,Wunderground v.1.15,2013-01-16 20:54:00,
2013-01-16 13:59:00,38.1,12.8,30.57,ENE,77,3.0,7.0,35,0.00,,,0.00,Wunderground v.1.15,2013-01-16 20:59:00,
2013-01-16 14:04:00,38.1,12.2,30.56,NNE,20,1.0,5.0,34,0.00,,,0.00,Wunderground v.1.15,2013-01-16 21:04:00,
2013-01-16 14:09:00,38.0,13.4,30.56,ENE,60,3.0,5.0,36,0.00,,,0.00,Wunderground v.1.15,2013-01-16 21:09:00,
2013-01-16 14:14:00,38.3,13.0,30.56,NE,42,5.0,7.0,35,0.00,,,0.00,Wunderground v.1.15,2013-01-16 21:14:00,
2013-01-16 14:19:00,38.7,13.4,30.56,NE,41,2.0,7.0,35,0.00,,,0.00,Wunderground v.1.15,2013-01-16 21:19:00,
2013-01-16 14:24:00,38.7,13.4,30.56,NE,43,2.0,4.0,35,0.00,,,0.00,Wunderground v.1.15,2013-01-16 21:24:00,
2013-01-16 14:29:00,38.9,13.5,30.56,East,98,5.0,5.0,35,0.00,,,0.00,Wunderground v.1.15,2013-01-16 21:29:00,
2013-01-16 14:34:00,39.0,13.6,30.56,NNE,17,5.0,8.0,35,0.00,,,0.00,Wunderground v.1.15,2013-01-16 21:34:00,
2013-01-16 14:39:00,39.2,13.8,30.56,NNE,15,2.0,8.0,35,0.00,,,0.00,Wunderground v.1.15,2013-01-16 21:39:00,
2013-01-16 14:44:00,39.2,13.8,30.55,NNE,15,3.0,3.0,35,0.00,,,0.00,Wunderground v.1.15,2013-01-16 21:44:00,
2013-01-16 14:49:00,39.2,13.8,30.55,NE,36,4.0,4.0,35,0.00,,,0.00,Wunderground v.1.15,2013-01-16 21:49:00,
2013-01-16 14:54:00,39.5,14.1,30.55,East,82,1.0,7.0,35,0.00,,,0.00,Wunderground v.1.15,2013-01-16 21:54:00,
2013-01-16 14:59:00,39.6,14.2,30.55,East,82,5.0,7.0,35,0.00,,,0.00,Wunderground v.1.15,2013-01-16 21:59:00,
2013-01-16 15:04:00,39.7,14.2,30.55,NE,54,4.0,7.0,35,0.00,,,0.00,Wunderground v.1.15,2013-01-16 22:04:00,
2013-01-16 15:09:00,40.0,15.2,30.55,East,100,3.0,7.0,36,0.00,,,0.00,Wunderground v.1.15,2013-01-16 22:09:00,
2013-01-16 15:14:00,40.3,14.8,30.55,ENE,71,4.0,5.0,35,0.00,,,0.00,Wunderground v.1.15,2013-01-16 22:14:00,
2013-01-16 15:19:00,40.4,15.5,30.55,NE,46,4.0,8.0,36,0.00,,,0.00,Wunderground v.1.15,2013-01-16 22:19:00,
2013-01-16 15:25:00,40.7,15.8,30.55,North,5,3.0,10.0,36,0.00,,,0.00,Wunderground v.1.15,2013-01-16 22:25:00,
2013-01-16 15:30:00,40.9,16.0,30.55,NE,38,8.0,10.0,36,0.00,,,0.00,Wunderground v.1.15,2013-01-16 22:30:00,
2013-01-16 15:35:00,41.1,16.1,30.55,NNE,27,9.0,9.0,36,0.00,,,0.00,Wunderground v.1.15,2013-01-16 22:35:00,
2013-01-16 15:40:00,41.3,15.7,30.55,NE,45,3.0,5.0,35,0.00,,,0.00,Wunderground v.1.15,2013-01-16 22:40:00,
2013-01-16 15:45:00,41.3,15.7,30.55,NE,54,7.0,10.0,35,0.00,,,0.00,Wunderground v.1.15,2013-01-16 22:45:00,
2013-01-16 15:51:00,41.4,15.8,30.56,NNW,342,6.0,6.0,35,0.00,,,0.00,Wunderground v.1.15,2013-01-16 22:51:00,
2013-01-16 15:56:00,41.6,15.9,30.56,NE,38,4.0,10.0,35,0.00,,,0.00,Wunderground v.1.15,2013-01-16 22:56:00,
2013-01-16 16:01:00,41.8,15.4,30.56,NNW,342,2.0,9.0,34,0.00,,,0.00,Wunderground v.1.15,2013-01-16 23:01:00,
2013-01-16 16:06:00,41.7,15.4,30.55,NNE,18,4.0,9.0,34,0.00,,,0.00,Wunderground v.1.15,2013-01-16 23:06:00,
2013-01-16 16:11:00,41.8,14.8,30.55,NNW,328,4.0,6.0,33,0.00,,,0.00,Wunderground v.1.15,2013-01-16 23:11:00,
2013-01-16 16:16:00,41.9,14.8,30.55,NNW,333,2.0,9.0,33,0.00,,,0.00,Wunderground v.1.15,2013-01-16 23:16:00,
2013-01-16 16:21:00,42.1,15.7,30.56,NNE,22,9.0,9.0,34,0.00,,,0.00,Wunderground v.1.15,2013-01-16 23:21:00,
2013-01-16 16:26:00,41.8,14.8,30.56,North,349,7.0,11.0,33,0.00,,,0.00,Wunderground v.1.15,2013-01-16 23:26:00,
2013-01-16 16:32:00,41.4,15.1,30.56,North,355,6.0,8.0,34,0.00,,,0.00,Wunderground v.1.15,2013-01-16 23:32:00,
2013-01-16 16:37:00,41.2,14.9,30.56,NNW,342,8.0,11.0,34,0.00,,,0.00,Wunderground v.1.15,2013-01-16 23:37:00,
2013-01-16 16:42:00,40.8,15.2,30.56,NNW,336,5.0,9.0,35,0.00,,,0.00,Wunderground v.1.15,2013-01-16 23:42:00,
2013-01-16 16:48:00,40.2,14.0,30.55,North,355,6.0,11.0,35,0.00,,,0.00,weatherlink.com 1.10,2013-01-16 23:48:00,
2013-01-16 16:53:00,40.0,15.2,30.55,North,5,7.0,7.0,36,0.00,,,0.00,Wunderground v.1.15,2013-01-16 23:53:00,
2013-01-16 16:59:00,39.6,14.8,30.55,North,351,6.0,7.0,36,0.00,,,0.00,Wunderground v.1.15,2013-01-16 23:59:00,
2013-01-16 17:04:00,39.3,14.5,30.56,North,351,4.0,8.0,36,0.00,,,0.00,Wunderground v.1.15,2013-01-17 00:04:00,
2013-01-16 17:09:00,38.9,14.8,30.56,NNW,342,8.0,8.0,37,0.00,,,0.00,Wunderground v.1.15,2013-01-17 00:09:00,
2013-01-16 17:14:00,38.5,14.4,30.56,North,5,4.0,6.0,37,0.00,,,0.00,Wunderground v.1.15,2013-01-17 00:14:00,
2013-01-16 17:19:00,38.0,14.6,30.57,NNW,334,9.0,9.0,38,0.00,,,0.00,Wunderground v.1.15,2013-01-17 00:19:00,
2013-01-16 17:24:00,37.5,14.8,30.57,North,5,7.0,9.0,39,0.00,,,0.00,Wunderground v.1.15,2013-01-17 00:24:00,
2013-01-16 17:29:00,37.1,15.0,30.57,North,355,5.0,9.0,40,0.00,,,0.00,Wunderground v.1.15,2013-01-17 00:29:00,
2013-01-16 17:34:00,36.7,14.6,30.57,North,5,4.0,7.0,40,0.00,,,0.00,Wunderground v.1.15,2013-01-17 00:34:00,
2013-01-16 17:39:00,36.3,14.3,30.57,North,9,5.0,7.0,40,0.00,,,0.00,Wunderground v.1.15,2013-01-17 00:39:00,
2013-01-16 17:44:00,35.8,14.4,30.57,NNE,13,4.0,7.0,41,0.00,,,0.00,Wunderground v.1.15,2013-01-17 00:44:00,
2013-01-16 17:49:00,35.3,14.5,30.57,NNE,12,3.0,8.0,42,0.00,,,0.00,Wunderground v.1.15,2013-01-17 00:49:00,
2013-01-16 17:54:00,35.0,14.7,30.58,North,9,6.0,7.0,43,0.00,,,0.00,Wunderground v.1.15,2013-01-17 00:54:00,
2013-01-16 17:59:00,34.8,14.5,30.58,North,360,4.0,7.0,43,0.00,,,0.00,Wunderground v.1.15,2013-01-17 00:59:00,
2013-01-16 18:04:00,34.5,14.3,30.58,North,360,4.0,5.0,43,0.00,,,0.00,Wunderground v.1.15,2013-01-17 01:04:00,
2013-01-16 18:09:00,34.2,14.0,30.58,North,360,1.0,5.0,43,0.00,,,0.00,Wunderground v.1.15,2013-01-17 01:09:00,
2013-01-16 18:14:00,33.8,14.7,30.59,NNE,17,2.0,5.0,45,0.00,,,0.00,Wunderground v.1.15,2013-01-17 01:14:00,
2013-01-16 18:19:00,33.5,14.9,30.59,North,349,2.0,5.0,46,0.00,,,0.00,Wunderground v.1.15,2013-01-17 01:19:00,
2013-01-16 18:24:00,33.1,15.0,30.59,NNW,347,5.0,5.0,47,0.00,,,0.00,Wunderground v.1.15,2013-01-17 01:24:00,
2013-01-16 18:29:00,32.7,14.7,30.59,NNE,25,5.0,7.0,47,0.00,,,0.00,Wunderground v.1.15,2013-01-17 01:29:00,
2013-01-16 18:34:00,32.4,14.4,30.59,North,350,4.0,8.0,47,0.00,,,0.00,Wunderground v.1.15,2013-01-17 01:34:00,
2013-01-16 18:39:00,32.1,14.6,30.59,NNE,13,5.0,10.0,48,0.00,,,0.00,Wunderground v.1.15,2013-01-17 01:39:00,
2013-01-16 18:44:00,32.0,14.0,30.59,NNE,19,6.0,8.0,47,0.00,,,0.00,Wunderground v.1.15,2013-01-17 01:44:00,
2013-01-16 18:49:00,31.9,13.9,30.59,NNE,30,6.0,9.0,47,0.00,,,0.00,Wunderground v.1.15,2013-01-17 01:49:00,
2013-01-16 18:54:00,31.9,13.9,30.60,NE,35,5.0,8.0,47,0.00,,,0.00,Wunderground v.1.15,2013-01-17 01:54:00,
2013-01-16 19:00:00,31.9,13.9,30.60,NNW,344,3.0,9.0,47,0.00,,,0.00,Wunderground v.1.15,2013-01-17 02:00:00,
2013-01-16 19:05:00,31.9,13.9,30.60,NNE,16,7.0,7.0,47,0.00,,,0.00,Wunderground v.1.15,2013-01-17 02:05:00,
2013-01-16 19:10:00,31.8,13.8,30.60,NNW,343,4.0,7.0,47,0.00,,,0.00,Wunderground v.1.15,2013-01-17 02:10:00,
2013-01-16 19:15:00,31.9,13.4,30.60,NNW,333,6.0,9.0,46,0.00,,,0.00,Wunderground v.1.15,2013-01-17 02:15:00,
2013-01-16 19:20:00,31.9,13.9,30.60,NNW,334,5.0,5.0,47,0.00,,,0.00,Wunderground v.1.15,2013-01-17 02:20:00,
2013-01-16 19:25:00,32.0,13.5,30.60,NNW,343,3.0,8.0,46,0.00,,,0.00,Wunderground v.1.15,2013-01-17 02:25:00,
2013-01-16 19:30:00,31.8,13.3,30.60,NNW,344,2.0,3.0,46,0.00,,,0.00,Wunderground v.1.15,2013-01-17 02:30:00,
2013-01-16 19:35:00,31.4,13.5,30.60,NNW,344,2.0,3.0,47,0.00,,,0.00,Wunderground v.1.15,2013-01-17 02:35:00,
2013-01-16 19:40:00,31.0,13.1,30.60,NNW,344,4.0,4.0,47,0.00,,,0.00,Wunderground v.1.15,2013-01-17 02:40:00,
2013-01-16 19:45:00,30.4,13.0,30.61,NNW,343,2.0,4.0,48,0.00,,,0.00,Wunderground v.1.15,2013-01-17 02:45:00,
2013-01-16 19:50:00,30.0,13.1,30.60,NNW,343,1.0,3.0,49,0.00,,,0.00,Wunderground v.1.15,2013-01-17 02:50:00,
2013-01-16 19:55:00,29.7,13.3,30.61,NNW,344,1.0,3.0,50,0.00,,,0.00,Wunderground v.1.15,2013-01-17 02:55:00,
2013-01-16 20:00:00,29.2,12.8,30.60,NNW,344,1.0,1.0,50,0.00,,,0.00,Wunderground v.1.15,2013-01-17 03:00:00,
2013-01-16 20:06:00,28.7,12.8,30.61,NNW,344,2.0,2.0,51,0.00,,,0.00,Wunderground v.1.15,2013-01-17 03:06:00,
2013-01-16 20:11:00,28.2,12.4,30.61,NNW,344,0.0,1.0,51,0.00,,,0.00,Wunderground v.1.15,2013-01-17 03:11:00,
2013-01-16 20:16:00,27.7,12.8,30.61,NNW,344,1.0,1.0,53,0.00,,,0.00,Wunderground v.1.15,2013-01-17 03:16:00,
2013-01-16 20:21:00,27.4,12.9,30.61,NNW,343,3.0,3.0,54,0.00,,,0.00,Wunderground v.1.15,2013-01-17 03:21:00,
2013-01-16 20:26:00,27.1,12.6,30.61,NNW,344,3.0,4.0,54,0.00,,,0.00,Wunderground v.1.15,2013-01-17 03:26:00,
2013-01-16 20:31:00,26.8,12.8,30.61,NNW,344,3.0,4.0,55,0.00,,,0.00,Wunderground v.1.15,2013-01-17 03:31:00,
2013-01-16 20:36:00,26.5,12.9,30.62,NNW,342,2.0,4.0,56,0.00,,,0.00,Wunderground v.1.15,2013-01-17 03:36:00,
2013-01-16 20:41:00,26.4,13.2,30.61,NNW,343,3.0,3.0,57,0.00,,,0.00,Wunderground v.1.15,2013-01-17 03:41:00,
2013-01-16 20:46:00,26.3,13.1,30.62,NNW,344,2.0,3.0,57,0.00,,,0.00,Wunderground v.1.15,2013-01-17 03:46:00,
2013-01-16 20:51:00,26.1,12.9,30.62,NNW,344,3.0,4.0,57,0.00,,,0.00,Wunderground v.1.15,2013-01-17 03:51:00,
2013-01-16 20:56:00,25.9,12.7,30.62,NNW,343,2.0,4.0,57,0.00,,,0.00,Wunderground v.1.15,2013-01-17 03:56:00,
2013-01-16 21:01:00,25.7,12.9,30.62,NNW,343,1.0,3.0,58,0.00,,,0.00,Wunderground v.1.15,2013-01-17 04:01:00,
2013-01-16 21:07:00,25.6,12.9,30.63,NNW,343,2.0,3.0,58,0.00,,,0.00,Wunderground v.1.15,2013-01-17 04:07:00,
2013-01-16 21:12:00,25.3,13.0,30.63,NNW,344,1.0,2.0,59,0.00,,,0.00,Wunderground v.1.15,2013-01-17 04:12:00,
2013-01-16 21:17:00,25.1,13.2,30.63,NNW,343,1.0,2.0,60,0.00,,,0.00,Wunderground v.1.15,2013-01-17 04:17:00,
2013-01-16 21:22:00,25.0,12.7,30.63,NNW,343,2.0,3.0,59,0.00,,,0.00,Wunderground v.1.15,2013-01-17 04:22:00,
2013-01-16 21:27:00,24.9,12.6,30.64,NNW,343,1.0,3.0,59,0.00,,,0.00,Wunderground v.1.15,2013-01-17 04:27:00,
2013-01-16 21:32:00,24.7,12.0,30.64,NNE,16,5.0,5.0,58,0.00,,,0.00,Wunderground v.1.15,2013-01-17 04:32:00,
2013-01-16 21:37:00,24.5,12.2,30.63,NNE,24,5.0,5.0,59,0.00,,,0.00,Wunderground v.1.15,2013-01-17 04:37:00,
2013-01-16 21:42:00,24.1,12.2,30.63,NNE,20,1.0,6.0,60,0.00,,,0.00,Wunderground v.1.15,2013-01-17 04:42:00,
2013-01-16 21:47:00,24.0,12.5,30.63,North,5,4.0,6.0,61,0.00,,,0.00,Wunderground v.1.15,2013-01-17 04:47:00,
2013-01-16 21:52:00,24.0,12.5,30.63,NNE,33,1.0,3.0,61,0.00,,,0.00,Wunderground v.1.15,2013-01-17 04:52:00,
2013-01-16 21:57:00,24.0,12.5,30.63,NNE,33,2.0,3.0,61,0.00,,,0.00,Wunderground v.1.15,2013-01-17 04:57:00,
2013-01-16 22:00:00,24.0,12.5,30.63,NNE,32,3.0,3.0,61,0.00,,,0.00,Wunderground v.1.15,2013-01-17 05:00:00,
2013-01-16 22:01:00,23.9,12.4,30.64,NNE,33,3.0,3.0,61,0.00,,,0.00,Wunderground v.1.15,2013-01-17 05:01:00,
2013-01-16 22:03:00,23.9,12.4,30.64,NNE,33,1.0,3.0,61,0.00,,,0.00,Wunderground v.1.15,2013-01-17 05:03:00,
2013-01-16 22:08:00,23.6,12.5,30.63,NNE,33,0.0,3.0,62,0.00,,,0.00,Wunderground v.1.15,2013-01-17 05:08:00,
2013-01-16 22:13:00,23.5,12.4,30.63,NNE,32,1.0,3.0,62,0.00,,,0.00,Wunderground v.1.15,2013-01-17 05:13:00,
2013-01-16 22:18:00,23.3,12.2,30.63,NE,34,2.0,3.0,62,0.00,,,0.00,Wunderground v.1.15,2013-01-17 05:18:00,
2013-01-16 22:23:00,23.1,12.4,30.63,NE,34,1.0,2.0,63,0.00,,,0.00,Wunderground v.1.15,2013-01-17 05:23:00,
2013-01-16 22:28:00,23.2,12.8,30.64,North,360,3.0,4.0,64,0.00,,,0.00,Wunderground v.1.15,2013-01-17 05:28:00,
2013-01-16 22:33:00,23.3,12.6,30.64,North,360,3.0,4.0,63,0.00,,,0.00,Wunderground v.1.15,2013-01-17 05:33:00,
2013-01-16 22:38:00,23.2,12.5,30.64,North,360,1.0,4.0,63,0.00,,,0.00,Wunderground v.1.15,2013-01-17 05:38:00,
2013-01-16 22:43:00,23.0,12.3,30.64,North,360,2.0,3.0,63,0.00,,,0.00,Wunderground v.1.15,2013-01-17 05:43:00,
2013-01-16 22:48:00,22.8,12.4,30.64,North,360,1.0,3.0,64,0.00,,,0.00,Wunderground v.1.15,2013-01-17 05:48:00,
2013-01-16 22:53:00,22.6,12.2,30.64,North,360,2.0,3.0,64,0.00,,,0.00,Wunderground v.1.15,2013-01-17 05:53:00,
2013-01-16 22:58:00,22.4,12.1,30.64,North,360,0.0,3.0,64,0.00,,,0.00,Wunderground v.1.15,2013-01-17 05:58:00,
2013-01-16 23:03:00,22.2,11.9,30.64,North,360,3.0,3.0,64,0.00,,,0.00,Wunderground v.1.15,2013-01-17 06:03:00,
2013-01-16 23:08:00,22.0,12.0,30.65,North,360,2.0,3.0,65,0.00,,,0.00,Wunderground v.1.15,2013-01-17 06:08:00,
2013-01-16 23:13:00,21.8,12.2,30.65,North,360,2.0,3.0,66,0.00,,,0.00,Wunderground v.1.15,2013-01-17 06:13:00,
2013-01-16 23:18:00,21.5,11.5,30.65,North,360,2.0,4.0,65,0.00,,,0.00,Wunderground v.1.15,2013-01-17 06:18:00,
2013-01-16 23:23:00,21.3,11.7,30.65,North,360,2.0,2.0,66,0.00,,,0.00,Wunderground v.1.15,2013-01-17 06:23:00,
2013-01-16 23:29:00,21.0,11.8,30.65,North,360,2.0,2.0,67,0.00,,,0.00,Wunderground v.1.15,2013-01-17 06:29:00,
2013-01-16 23:34:00,20.9,11.3,30.65,North,360,3.0,3.0,66,0.00,,,0.00,Wunderground v.1.15,2013-01-17 06:34:00,
2013-01-16 23:39:00,20.7,11.1,30.65,North,360,3.0,4.0,66,0.00,,,0.00,Wunderground v.1.15,2013-01-17 06:39:00,
2013-01-16 23:44:00,20.5,11.3,30.65,North,360,3.0,4.0,67,0.00,,,0.00,Wunderground v.1.15,2013-01-17 06:44:00,
2013-01-16 23:49:00,20.4,11.5,30.65,North,360,4.0,5.0,68,0.00,,,0.00,Wunderground v.1.15,2013-01-17 06:49:00,
2013-01-16 23:54:00,20.4,11.8,30.66,North,351,5.0,5.0,69,0.00,,,0.00,Wunderground v.1.15,2013-01-17 06:54:00,
2013-01-16 23:59:00,20.5,11.9,30.65,North,355,4.0,6.0,69,0.00,,,0.00,Wunderground v.1.15,2013-01-17 06:59:00,